When you browse on this site, cookies collect data to enhance your experience and personalize the content and advertising you see.
Visit our Privacy Policy to learn more. By continuing to use the site, you agree to this use of cookies and data.
  • In Portugal
  • List of Countries
  • For 7 days
  • Water Temperature
  • Satellite Maps
  • Weather Map
  • Weather Widgets
  • user-avatar
    Login

    Hourly Weather Florianópolis

    Today, 18 January, Friday

    Time Temperature Precipitation Wind Pressure Humidity
    00:00 +26°C° 0.4 mm 3 mps 761 mmHg 98%
    01:00 +26°C° 0.4 mm 3 mps 761 mmHg 98%
    02:00 +26°C° 0.4 mm 2 mps 761 mmHg 99%
    03:00 +26°C° 0 mm 2 mps 761 mmHg 99%
    04:00 +26°C° 0.1 mm 2 mps 760 mmHg 99%
    05:00 +26°C° 0.1 mm 1 mps 760 mmHg 99%
    06:00 +26°C° 0.1 mm 1 mps 760 mmHg 98%
    07:00 +28°C° 0 mm 1 mps 760 mmHg 93%
    08:00 +29°C° 0 mm 1 mps 761 mmHg 87%
    09:00 +31°C° 0 mm 1 mps 761 mmHg 77%
    10:00 +31°C° 0 mm 1 mps 761 mmHg 75%
    11:00 +31°C° 0 mm 2 mps 760 mmHg 72%
    12:00 +32°C° 0 mm 2 mps 760 mmHg 69%
    13:00 +33°C° 0 mm 3 mps 760 mmHg 69%
    14:00 +33°C° 0 mm 3 mps 759 mmHg 68%
    15:00 +33°C° 0 mm 3 mps 759 mmHg 67%
    16:00 +33°C° 0 mm 3 mps 759 mmHg 72%
    17:00 +31°C° 0 mm 3 mps 759 mmHg 76%
    18:00 +30°C° 0 mm 3 mps 759 mmHg 80%
    19:00 +30°C° 0.1 mm 3 mps 759 mmHg 85%
    20:00 +29°C° 0.1 mm 2 mps 759 mmHg 91%
    21:00 +28°C° 0.1 mm 2 mps 759 mmHg 96%
    22:00 +28°C° 0.1 mm 2 mps 759 mmHg 96%
    23:00 +27°C° 0.1 mm 2 mps 759 mmHg 97%

    Tomorrow, 19 January, Saturday

    Time Temperature Precipitation Wind Pressure Humidity
    00:00 +27°C° 0.1 mm 2 mps 759 mmHg 97%
    01:00 +27°C° 0.1 mm 2 mps 758 mmHg 97%
    02:00 +27°C° 0.1 mm 2 mps 758 mmHg 97%
    03:00 +27°C° 0.1 mm 2 mps 757 mmHg 97%
    04:00 +27°C° 0 mm 3 mps 757 mmHg 97%
    05:00 +27°C° 0 mm 3 mps 757 mmHg 97%
    06:00 +27°C° 0 mm 3 mps 757 mmHg 96%
    07:00 +29°C° 0.1 mm 2 mps 757 mmHg 87%
    08:00 +31°C° 0.1 mm 2 mps 757 mmHg 77%
    09:00 +34°C° 0.1 mm 2 mps 758 mmHg 67%
    10:00 +35°C° 0.3 mm 2 mps 758 mmHg 65%
    11:00 +36°C° 0.3 mm 3 mps 758 mmHg 63%
    12:00 +37°C° 0.3 mm 3 mps 758 mmHg 62%
    13:00 +34°C° 1.8 mm 4 mps 758 mmHg 73%
    14:00 +32°C° 1.8 mm 4 mps 757 mmHg 84%
    15:00 +29°C° 1.8 mm 5 mps 757 mmHg 96%
    16:00 +28°C° 0.7 mm 5 mps 758 mmHg 95%
    17:00 +27°C° 0.7 mm 6 mps 758 mmHg 93%
    18:00 +27°C° 0.7 mm 6 mps 758 mmHg 92%
    19:00 +26°C° 0.4 mm 6 mps 758 mmHg 91%
    20:00 +24°C° 0.4 mm 6 mps 759 mmHg 90%
    21:00 +24°C° 0.4 mm 6 mps 760 mmHg 89%
    22:00 +24°C° 0 mm 6 mps 760 mmHg 87%
    23:00 +24°C° 0 mm 6 mps 760 mmHg 85%

    Day after tomorrow, 20 January, Sunday

    Time Temperature Precipitation Wind Pressure Humidity
    00:00 +24°C° 0 mm 6 mps 760 mmHg 83%
    01:00 +25°C° 0 mm 5 mps 760 mmHg 83%
    02:00 +25°C° 0 mm 5 mps 759 mmHg 83%
    03:00 +25°C° 0 mm 4 mps 759 mmHg 83%
    04:00 +25°C° 0 mm 4 mps 759 mmHg 83%
    05:00 +25°C° 0 mm 5 mps 759 mmHg 83%
    06:00 +25°C° 0 mm 5 mps 759 mmHg 83%
    07:00 +26°C° 0 mm 4 mps 760 mmHg 77%
    08:00 +28°C° 0 mm 4 mps 760 mmHg 71%
    09:00 +29°C° 0 mm 4 mps 760 mmHg 65%
    10:00 +30°C° 0 mm 4 mps 760 mmHg 63%
    11:00 +32°C° 0 mm 4 mps 760 mmHg 60%
    12:00 +32°C° 0 mm 4 mps 760 mmHg 58%
    13:00 +30°C° 0 mm 4 mps 760 mmHg 65%
    14:00 +29°C° 0 mm 4 mps 759 mmHg 71%
    15:00 +27°C° 0 mm 4 mps 759 mmHg 78%
    16:00 +28°C° 0 mm 4 mps 759 mmHg 75%
    17:00 +29°C° 0 mm 4 mps 759 mmHg 73%
    18:00 +29°C° 0 mm 4 mps 759 mmHg 70%
    19:00 +28°C° 0 mm 3 mps 759 mmHg 76%
    20:00 +27°C° 0 mm 3 mps 759 mmHg 83%
    21:00 +25°C° 0 mm 3 mps 760 mmHg 90%
    22:00 +25°C° 0 mm 2 mps 760 mmHg 90%
    23:00 +25°C° 0 mm 2 mps 760 mmHg 90%

    21 January, Monday

    Time Temperature Precipitation Wind Pressure Humidity
    00:00 +25°C° 0 mm 1 mps 760 mmHg 90%
    01:00 +25°C° 0 mm 1 mps 760 mmHg 92%
    02:00 +25°C° 0 mm 1 mps 759 mmHg 93%
    03:00 +22°C° 0 mm 0 mps 759 mmHg 95%
    04:00 +22°C° 0 mm 0 mps 759 mmHg 94%
    05:00 +24°C° 0 mm 1 mps 759 mmHg 93%
    06:00 +25°C° 0 mm 1 mps 759 mmHg 92%
    07:00 +27°C° 0 mm 1 mps 759 mmHg 84%
    08:00 +29°C° 0 mm 1 mps 760 mmHg 76%
    09:00 +31°C° 0 mm 1 mps 760 mmHg 67%
    10:00 +32°C° 0 mm 2 mps 760 mmHg 65%
    11:00 +34°C° 0 mm 2 mps 760 mmHg 62%
    12:00 +35°C° 0 mm 3 mps 759 mmHg 59%
    13:00 +34°C° 0.1 mm 3 mps 759 mmHg 62%
    14:00 +34°C° 0.1 mm 4 mps 758 mmHg 65%
    15:00 +34°C° 0.1 mm 4 mps 758 mmHg 68%
    16:00 +33°C° 0.7 mm 4 mps 758 mmHg 75%
    17:00 +31°C° 0.7 mm 3 mps 758 mmHg 82%
    18:00 +30°C° 0.7 mm 3 mps 758 mmHg 89%
    19:00 +29°C° 3.4 mm 2 mps 759 mmHg 92%
    20:00 +28°C° 3.4 mm 2 mps 759 mmHg 95%
    21:00 +27°C° 3.4 mm 2 mps 760 mmHg 98%
    22:00 +26°C° 0.3 mm 1 mps 760 mmHg 98%
    23:00 +26°C° 0.3 mm 1 mps 760 mmHg 98%

    22 January, Tuesday

    Time Temperature Precipitation Wind Pressure Humidity
    00:00 +26°C° 0.3 mm 1 mps 760 mmHg 98%
    01:00 +26°C° 0 mm 1 mps 760 mmHg 98%
    02:00 +26°C° 0 mm 1 mps 759 mmHg 98%
    03:00 +26°C° 0 mm 1 mps 759 mmHg 99%
    04:00 +26°C° 0 mm 1 mps 759 mmHg 99%
    05:00 +26°C° 0 mm 1 mps 759 mmHg 99%
    06:00 +26°C° 0 mm 1 mps 760 mmHg 99%
    07:00 +28°C° 0 mm 1 mps 760 mmHg 88%
    08:00 +31°C° 0 mm 1 mps 760 mmHg 78%
    09:00 +31°C° 0 mm 0 mps 761 mmHg 68%
    10:00 +34°C° 0.1 mm 1 mps 760 mmHg 65%
    11:00 +36°C° 0.1 mm 2 mps 760 mmHg 63%
    12:00 +37°C° 0.1 mm 3 mps 760 mmHg 60%
    13:00 +36°C° 0.3 mm 3 mps 759 mmHg 66%
    14:00 +35°C° 0.3 mm 3 mps 759 mmHg 72%
    15:00 +34°C° 0.3 mm 4 mps 759 mmHg 78%
    16:00 +33°C° 0.2 mm 3 mps 759 mmHg 81%
    17:00 +31°C° 0.2 mm 3 mps 759 mmHg 84%
    18:00 +30°C° 0.2 mm 3 mps 759 mmHg 87%
    19:00 +29°C° 0 mm 2 mps 760 mmHg 91%
    20:00 +28°C° 0 mm 2 mps 760 mmHg 94%
    21:00 +28°C° 0 mm 1 mps 761 mmHg 97%
    22:00 +27°C° 0 mm 1 mps 761 mmHg 97%
    23:00 +27°C° 0 mm 1 mps 760 mmHg 98%

    23 January, Wednesday

    Time Temperature Precipitation Wind Pressure Humidity
    00:00 +27°C° 0 mm 1 mps 760 mmHg 99%
    01:00 +27°C° 0 mm 1 mps 760 mmHg 99%
    02:00 +27°C° 0 mm 1 mps 760 mmHg 99%
    03:00 +26°C° 0 mm 1 mps 759 mmHg 99%
    04:00 +26°C° 0 mm 1 mps 759 mmHg 98%
    05:00 +26°C° 0 mm 1 mps 760 mmHg 98%
    06:00 +26°C° 0 mm 1 mps 760 mmHg 97%
    07:00 +29°C° 0 mm 1 mps 760 mmHg 84%
    08:00 +31°C° 0 mm 1 mps 760 mmHg 72%
    09:00 +34°C° 0 mm 1 mps 760 mmHg 60%
    10:00 +37°C° 0 mm 2 mps 760 mmHg 54%
    11:00 +38°C° 0 mm 3 mps 759 mmHg 49%
    12:00 +41°C° 0 mm 4 mps 759 mmHg 43%
    13:00 +40°C° 0.2 mm 4 mps 758 mmHg 48%
    14:00 +38°C° 0.2 mm 4 mps 758 mmHg 52%
    15:00 +37°C° 0.2 mm 4 mps 757 mmHg 57%
    16:00 +36°C° 0.7 mm 4 mps 758 mmHg 65%
    17:00 +34°C° 0.7 mm 3 mps 758 mmHg 74%
    18:00 +31°C° 0.7 mm 3 mps 758 mmHg 83%
    19:00 +30°C° 0.7 mm 2 mps 758 mmHg 87%
    20:00 +29°C° 0.7 mm 1 mps 759 mmHg 92%
    21:00 +28°C° 0.7 mm 1 mps 759 mmHg 97%
    22:00 +28°C° 0.8 mm 1 mps 759 mmHg 97%
    23:00 +27°C° 0.8 mm 1 mps 760 mmHg 97%
    Show more